Regional Weather Roundup
Issued by NWS Wakefield, VA

Home | Current Version | Previous Version | Graphics & Text | Print | Product List | Glossary On
Versions: 1 2 3 4 5 6 7 8 9 10 11 12 13 14 15 16 17 18 19 20 21 22 23 24 25 26 27 28 29 30 31 32 33 34 35 36 37 38 39 40 41 42 43 44 45 46 47 48 49 50
000
ASUS41 KAKQ 011310
RWRAKQ

REGIONAL WEATHER ROUNDUP
NATIONAL WEATHER SERVICE WAKEFIELD VA
800 AM EST SUN MAR 01 2015

Note: "fair" indicates few or no clouds below 12,000 feet with no
significant weather and/or obstructions to visibility. * = Denotes
station may not report precipitation (e.g., rain,snow,etc.),
thunder or fog.

VAZ042-051-052>054-056-011400-
NORTHERN VIRGINIA

CITY           SKY/WX    TMP DP  RH WIND       PRES   REMARKS
WASH NATIONAL  CLOUDY    29  16  58 S5        30.67S
DULLES         CLOUDY    25  11  55 SE6       30.62F
FORT BELVOIR   MIX PCPN  26  18  70 SE2       30.65F
QUANTICO       FRZ RAIN  27  20  75 S8        30.67F
FREDERICKSBRG* MIX PCPN  27  22  82 SE3       30.65S
STAFFORD*      MIX PCPN  25  19  78 SE5       30.69S
WARRENTON      MIX PCPN  28  22  78 CALM      30.63R
CULPEPER*      MIX PCPN  27  19  74 CALM      30.64R
MANASSAS*      NOT AVBL
LEESBURG*      CLOUDY    27  18  69 S3        30.63S
WINCHESTER     CLOUDY    28  10  47 CALM      30.57R
FRONT ROYAL*   CLOUDY    25  14  63 CALM      30.56R
LURAY*         CLOUDY    32  19  59 SW3       30.55R
$$

VAZ048-049-060>072-079>083-011400-
CENTRAL AND SOUTH CENTRAL VIRGINIA

CITY           SKY/WX    TMP DP  RH WIND       PRES   REMARKS
RICHMOND       FRZ DRZL  28  17  63 N5        30.65R
CHESTERFIELD*  CLOUDY    28  10  47 N5        30.65S
PETERSBURG*    FLURRIES  29  21  70 CALM      30.65R
HANOVER        CLOUDY    27  17  66 CALM      30.66S
TAPPAHANNOCK*  MIX PCPN  26  19  74 CALM      30.68R
QUINTON*       CLOUDY    27  19  73 CALM      30.67R
CHARLOTTSVILLE CLOUDY    26  15  63 S5        30.60S
GORDONSVILLE*  CLOUDY    25  15  66 CALM      30.62R
ORANGE*        CLOUDY    28  18  64 CALM      30.64R
LOUISA*        MIX PCPN  27  19  74 CALM      30.61R
BUMPASS*       CLOUDY    26  17  69 CALM      30.63F
FARMVILLE*     CLOUDY    30  18  60 CALM      30.62S
CREWE*         CLOUDY    27  20  75 CALM      30.62F
FORT PICKETT*  CLOUDY    27  19  72 N3        30.61F
CHASE CITY*    CLOUDY    29  28  96 CALM      30.62R
CLARKSVILLE*   CLOUDY    28  27  93 CALM      30.61S
SOUTH HILL*    CLOUDY    27  24  91 CALM      30.67F
LAWRENCEVILLE* CLOUDY    27  24  89 CALM      30.62S
EMPORIA*       LGT SNOW  28  27  93 NW6       30.65R
$$

VAZ088>098-011400-
SOUTHEAST VIRGINIA

CITY           SKY/WX    TMP DP  RH WIND       PRES   REMARKS
NORFOLK        CLOUDY    32  26  78 NE9       30.61F
VIRGINIA BEACH CLOUDY    35  28  75 NE9       30.59F
NORFOLK NAVAL  CLOUDY    33  25  72 NE10      30.63F WCI  25
WEST POINT*    CLOUDY    30  20  67 NW3       30.68R
SALUDA*        CLOUDY    29  19  67 CALM      30.66R
NEWPORT NEWS   CLOUDY    32  22  66 NE7       30.63S
LANGLEY AFB    CLOUDY    30  23  76 NE7       30.64R
FORT EUSTIS    CLOUDY    29  23  76 E3        30.61F
WILLIAMSBURG*  CLOUDY    30  25  80 N3        30.65R
HR EXEC AP*    CLOUDY    30  25  80 NE7       30.63F
FRANKLIN*      MIX PCPN  28  26  89 N3        30.62S
WAKEFIELD      MIX PCPN  29  20  69 N5        30.64R
$$

VAZ020-022-025-037-045-011400-
WEST CENTRAL AND SOUTHWEST VIRGINIA

CITY           SKY/WX    TMP DP  RH WIND       PRES   REMARKS
STAUNTON*      MIX PCPN  28  14  55 S6        30.55S
WAYNESBORO*    CLOUDY    27  14  58 CALM      30.52F
HOT SPRINGS VA RAIN      36  36 100 SW20G28   30.37F
LYNCHBURG      CLOUDY    26  16  65 S5        30.60S
DANVILLE       MIX PCPN  29  24  82 E3        30.61F
SOUTH BOSTON*  CLOUDY    28  24  87 CALM      30.63R
MARTINSVILLE   MIX PCPN  29  25  83 SE3       30.61S
ROANOKE        CLOUDY    28  14  55 SE6       30.58S
BLACKSBURG     CLOUDY    26  15  61 SE3       30.51F
DUBLIN*        CLOUDY    28  18  66 CALM      30.50S
MARION*        CLOUDY    30  20  65 E6        30.46F
HILLSVILLE*    CLOUDY    32  25  76 CALM      30.45S
RICHLANDS*     CLOUDY    38  24  56 CALM      30.39R
WISE*          CLOUDY    37  27  65 S5        30.39S
ABINGDON*      MOSUNNY   37  26  62 CALM      30.42S
$$

MDZ021>025-VAZ099-100-011400-
SOUTHERN MARYLAND AND THE DELMARVA PENINSULA

CITY           SKY/WX    TMP DP  RH WIND       PRES   REMARKS
PATUXENT RIVER SLEET     28  18  66 SE5       30.67R FOG
BAY BRIDGE APT   N/A     27  18  69 SE5       30.67S
LEONARDTOWN    CLOUDY    27  21  80 CALM      30.68S
DOVER          PTSUNNY   25  17  72 E2        30.67S
GEORGETOWN     CLOUDY    24  12  60 CALM      30.68R
EASTON         NOT AVBL
CAMBRIDGE      MOSUNNY   28  16  59 CALM      30.67R
SALISBURY      CLOUDY    27  15  61 CALM      30.67R
OCEAN CITY     CLOUDY    29  20  69 NE3       30.66S
WALLOPS ISLAND CLOUDY    27  22  81 E5        30.66S
ACCOMACK*      CLOUDY    28  19  69 E5        30.63F
$$

NCZ012>017-030>032-011400-
NORTH CENTRAL AND EASTERN NORTH CAROLINA

CITY           SKY/WX    TMP DP  RH WIND       PRES   REMARKS
ROANOKE RAPIDS MIX PCPN  30  27  86 N7        30.62R
RALEIGH        FRZ RAIN  30  27  86 NE10      30.60S FOG     WCI  21
ELIZABETH CITY CLOUDY    36  30  79 NE8       30.58F
AHOSKIE*       MIX PCPN  28  26  89 N6        30.62S
EDENTON*       CLOUDY    33  30  88 N3        30.58F
CURRITUCK*     DRIZZLE   36  29  78 NE7       30.60F
KILL DEVIL HLS CLOUDY    39  36  87 N5        30.56F
MANTEO         CLOUDY    39  36  87 N7        30.59R
CAPE HATTERAS  CLOUDY    41  39  93 N6        30.58R
TARBORO*       CLOUDY    30  27  88 N6        30.62R
GOLDSBORO      NOT AVBL
WASHINGTON     CLOUDY    32  28  83 N6        30.59S
GREENVILLE     DRIZZLE   32  28  86 E3        30.57F
NEW BERN       LGT RAIN  35  30  82 NE6       30.58S
WILMINGTON     MOSUNNY   38  32  79 NE8       30.53F
$$

VAZ048-011400-
ELSEWHERE

CITY           SKY/WX    TMP DP  RH WIND       PRES   REMARKS
HARRISBURG PA  LGT SNOW  21  16  81 SE5       30.60F VSB 1
BALTIMORE      CLOUDY    23  14  68 CALM      30.65S
ANNAPOLIS      CLOUDY    25  18  74 CALM      30.66S
ANDREWS AFB    FLURRIES  25  15  64 SE5       30.64F
PHILADELPHIA   CLOUDY    25  12  58 S6        30.69R
HENDERSON NC   MIX PCPN  29  27  92 CALM      30.62R
GREENSBORO     FRZ RAIN  29  25  85 N3        30.57S
ROCKY MOUNT    FRZ RAIN  30  26  85 N8        30.59F FOG
$$

VAZ100-011400-
MARINE

STATION/POSITION TIME  TEMP    WIND        PRES    WAVE   SWELL
                       AIR SEA DIR/SP/G            HT/PER HT/PER
                 (UTC) (F)     (DEG/KT/KT) (MB)    (FT/S) (FT/S)
BRANDYWINE LGT   1300          110/  4/  5 1038.9R
CAPE MAY NJ      1300           80/  1/  2 1038.5S
LEWES DE         1300   26 30   70/  5/  5 1037.8F
15NM E FENWICK I 1300   32 33              1037.4F   2/10
OCEAN-CITY-INLET 1300           80/  5/  6 1037.3F
WACHAPREAGUE VA  1300   29 33   40/  7/  8 1037.2F
THOMAS POINT MD  1300   27 31  150/  7/  8 1039.5R
COVE POINT MD    1300   26     180/  6/  6 1038.5R
SOLOMONS ISLAND  1300      32                N/A
BISHOPS HEAD MD  1300           80/  4/  5 1038.1R
CAMBRIDGE MD     1300   26 32  160/  2/  3 1038.6R
LEWISETTA VA     1300   28 33              1038.4R
RAPPAHANNOCK LGT 1300           40/  8/  9 1037.6F
STINGRAY PT      1300   29 32   50/  8/ 10   N/A     1/ 2
YORK RVR RNG VA  1300   30      50/ 11/ 12 1036.5F
YORKTOWN VA      1300   29 33   30/  5/  6 1037.2R
DOMINION TERM VA 1300   31      50/  3/  5 1036.9S
KIPTOPEKE VA     1300      36   60/  8/ 12   N/A
CHES BAY BRIDGE  1300   32 33   30/ 12/ 14 1036.0S
CAPE HENRY VA    1300   32      40/  9/ 11 1035.1F
CHESAPEAKE LGHT  1200   35      30/ 16/ 17 1037.0R
WILLOUBY STN VA  1300   31      30/ 11/ 13 1037.2R
S CRANEY ISL VA  1300           40/  6/  7 1036.5F
CAPE HENRY BUOY  1300      35                N/A     3/ 9
1ST LANDING BUOY 1300   32 32   40/ 12/ 14 1036.1R   2/ 3
OFFSHORE WE BUOY 1300      37                N/A     3/10   2/10
64NM E OF VA BCH 1300   56 63  130/ 14/ 17 1035.1R   4/10   2/10
DUCK PIER NC     1300   35 34  350/ 13/ 14 1034.7F
44100 DUCK FRF   1300      36                N/A     4/ 4
44056 DUCK FRF   1300      34                N/A     3/ 9
OREGON INLET NC  1300          360/  4/  4 1035.6F
HATTERAS NC      1300   39 38   30/  2/  6 1035.6R
CAPE LOOKOUT NC  1200   38      20/  8/ 11 1034.7R
$$


USA.gov is the U.S. government's official web portal to all federal, state and local government web resources and services.